TimeEDT,TemperatureF,Dew PointF,Humidity,Sea Level PressureIn,VisibilityMPH,Wind Direction,Wind SpeedMPH,Gust SpeedMPH,PrecipitationIn,Events,Conditions,WindDirDegrees,DateUTC
12:56 AM,57.9,51.1,78,29.93,10.0,West,5.8,-,N/A,,Overcast,270,2011-10-25 04:56:00
1:56 AM,55.0,51.1,86,29.93,10.0,WNW,3.5,-,0.00,,Overcast,300,2011-10-25 05:56:00
2:56 AM,53.1,50.0,89,29.93,10.0,NNW,4.6,-,N/A,,Overcast,330,2011-10-25 06:56:00
3:56 AM,52.0,48.0,86,29.93,10.0,NW,5.8,-,N/A,,Clear,310,2011-10-25 07:56:00
4:56 AM,50.0,46.9,89,29.94,10.0,WNW,6.9,-,N/A,,Clear,300,2011-10-25 08:56:00
5:56 AM,46.9,45.0,93,29.94,10.0,WNW,4.6,-,N/A,,Clear,300,2011-10-25 09:56:00
6:56 AM,46.9,44.1,90,29.95,10.0,West,4.6,-,N/A,,Clear,280,2011-10-25 10:56:00
7:56 AM,48.9,44.1,83,29.96,10.0,West,6.9,-,N/A,,Clear,270,2011-10-25 11:56:00
8:56 AM,52.0,42.1,69,29.98,10.0,West,10.4,-,N/A,,Clear,280,2011-10-25 12:56:00
9:56 AM,55.0,41.0,59,29.97,10.0,WNW,16.1,23.0,N/A,,Clear,290,2011-10-25 13:56:00
10:56 AM,57.9,39.0,49,29.97,10.0,WNW,13.8,24.2,N/A,,Partly Cloudy,300,2011-10-25 14:56:00
11:56 AM,59.0,37.0,44,29.95,10.0,NW,17.3,27.6,N/A,,Clear,320,2011-10-25 15:56:00
12:56 PM,59.0,37.9,46,29.93,10.0,NNW,15.0,19.6,N/A,,Clear,340,2011-10-25 16:56:00
1:56 PM,61.0,36.0,39,29.92,10.0,WNW,12.7,19.6,N/A,,Clear,300,2011-10-25 17:56:00
2:56 PM,61.0,33.1,35,29.91,10.0,NW,13.8,27.6,N/A,,Clear,310,2011-10-25 18:56:00
3:56 PM,61.0,33.1,35,29.93,10.0,WNW,12.7,26.5,N/A,,Clear,300,2011-10-25 19:56:00
4:56 PM,59.0,33.1,38,29.93,10.0,NW,13.8,21.9,N/A,,Clear,310,2011-10-25 20:56:00
5:56 PM,55.9,33.1,42,29.96,10.0,NW,9.2,17.3,N/A,,Clear,310,2011-10-25 21:56:00
6:56 PM,53.1,33.1,47,29.98,10.0,NW,6.9,-,N/A,,Clear,320,2011-10-25 22:56:00
7:56 PM,50.0,34.0,54,29.99,10.0,NW,6.9,-,N/A,,Clear,310,2011-10-25 23:56:00
8:56 PM,48.9,35.1,59,30.01,10.0,WNW,5.8,-,N/A,,Clear,300,2011-10-26 00:56:00
9:56 PM,50.0,34.0,54,30.01,10.0,Calm,Calm,-,N/A,,Clear,0,2011-10-26 01:56:00
10:56 PM,46.9,34.0,61,30.01,10.0,NNW,4.6,-,N/A,,Clear,330,2011-10-26 02:56:00
11:56 PM,46.9,35.1,63,30.03,10.0,Calm,Calm,-,N/A,,Scattered Clouds,0,2011-10-26 03:56:00